INSAT-3DR (41752 NORAD) Tracking and Keplerian Element Data

This shows tracking and keplerian element data for the satellite.

Feedback or suggestion? Click here.




ElementValue
Catalog41752
NameINSAT-3DR
Epoch Orbit994
Epoch Day145.9116045
Epoch Year2019
RAAN97.6167
Inclination0.1319
Eccentricity0.0010205
Argument of Perigee180.4514
Mean Anonmoly7.3032
Mean Motion1.00271659
Decay Rate-8.1E-07
L11 41752U 16054A 19145.91160450 -.00000081 00000-0 00000-0 0 9991
L22 41752 0.1319 97.6167 0010205 180.4514 7.3032 1.00271659 9940

Live tracking and technical data element details for INSAT-3DR (NORAD 41752). INSAT-3DR can be tracked NOW for your location showing map with azimuth and elevation plus other details from your city location.

Track the satellite on the map from your city or location and see movement details for azimuth, elevation, latitude, longitude, range, height, and movement on the map or in text.







IsCatalogInMostPopularTable: catalog: 41752, numindb: 208
Update: records affected: 1



GetName: 41752 INSAT-3DR

Hit Count: updated at: Sun, 26 May 2019 19:49:09 GMT